Погода в Пенкине

Россия / Владимирская область     56°11′26″N   40°54′41″E
темп.,
°C
ветер,
м/с
пор.,
м/с
влажн.,
%
обл.,
%
осадки,
мм/ч
давл.,
гПа
погр.,
м
3 августа, вт
вт300:00+22ююв5136643 0.2 1004282
03:00+18ююз3692100 1.1 1005149
06:00+19юз41091100 0.0 1005314
09:00+22зюз4675100 0.0 1007839
12:00+23зюз4562100 0.0 10081261
15:00+26з474599 0.1 10072236
18:00+23зсз4754100 0.0 1008599
21:00+19з386253 0.0 1010226
4 августа, ср
ср400:00+19зюз386243 0.0 1011276
03:00+14з35770 0.0 101288
06:00+15з26730 0.0 1013172
09:00+21зсз35521 0.0 1014851
12:00+24зсз453598 0.0 10142643
15:00+23з4539100 0.0 10141173
18:00+21зсз364986 0.0 1014267
21:00+19сз2450100 0.0 101592
5 августа, чт
чт500:00+18ссз265372 0.0 1016138
03:00+16сз2355100 0.0 101762
06:00+15всв2276100 0.3 101857
09:00+19с015736 0.3 1018336
12:00+23зюз0141100 0.0 10181556
15:00+23с2243100 0.0 10171434
18:00+21всв3451100 0.0 1017269
21:00+18в2457100 0.0 101783
6 августа, пт
пт600:00+17юв2259100 0.0 101640
03:00+14с2495100 1.3 1017109
06:00+13в3697100 5.2 1016187
09:00+13в51196100 7.6 1015354
12:00+14в4993100 0.4 1015277
15:00+14всв4993100 1.8 1013237
18:00+14в4896100 3.0 1014199
21:00+15в4994100 3.4 1012195
7 августа, сб
сб700:00+14св359692 0.3 1013118
03:00+14всв31096100 0.4 1012231
06:00+15в4895100 0.0 1012236
09:00+16в3790100 0.0 1012160
12:00+21в2470100 0.0 1011262
15:00+31ююз143499 0.1 10101515
18:00+24ссв5765100 0.0 1010231
21:00+19юв2581100 0.0 101088